TimeEDT,TemperatureF,Dew PointF,Humidity,Sea Level PressureIn,VisibilityMPH,Wind Direction,Wind SpeedMPH,Gust SpeedMPH,PrecipitationIn,Events,Conditions,WindDirDegrees,DateUTC
12:15 AM,69.8,55.4,60,30.00,10.0,NW,4.6,-,N/A,,Scattered Clouds,320,2013-04-02 04:15:00
12:35 AM,68.0,55.4,64,30.00,10.0,WNW,3.5,-,N/A,,Mostly Cloudy,300,2013-04-02 04:35:00
12:55 AM,68.0,55.4,64,30.00,10.0,WNW,3.5,-,N/A,,Scattered Clouds,300,2013-04-02 04:55:00
1:15 AM,66.2,55.4,68,30.01,10.0,WNW,3.5,-,N/A,,Clear,300,2013-04-02 05:15:00
1:35 AM,62.6,55.4,77,30.01,10.0,Calm,Calm,-,N/A,,Clear,0,2013-04-02 05:35:00
1:55 AM,60.8,55.4,82,30.01,10.0,Calm,Calm,-,N/A,,Clear,0,2013-04-02 05:55:00
2:15 AM,60.8,55.4,82,30.01,10.0,Calm,Calm,-,N/A,,Clear,0,2013-04-02 06:15:00
2:35 AM,60.8,55.4,82,30.01,10.0,Calm,Calm,-,N/A,,Clear,0,2013-04-02 06:35:00
2:55 AM,59.0,55.4,88,30.01,10.0,Calm,Calm,-,N/A,,Clear,0,2013-04-02 06:55:00
3:15 AM,59.0,55.4,88,30.01,10.0,Calm,Calm,-,N/A,,Clear,0,2013-04-02 07:15:00
3:35 AM,59.0,53.6,82,30.01,10.0,Calm,Calm,-,N/A,,Clear,0,2013-04-02 07:35:00
3:55 AM,55.4,53.6,94,30.02,10.0,Calm,Calm,-,N/A,,Clear,0,2013-04-02 07:55:00
4:15 AM,55.4,53.6,94,30.02,10.0,Calm,Calm,-,N/A,,Clear,0,2013-04-02 08:15:00
4:35 AM,55.4,53.6,94,30.03,10.0,Calm,Calm,-,N/A,,Clear,0,2013-04-02 08:35:00
4:55 AM,55.4,53.6,94,30.03,4.0,Calm,Calm,-,N/A,,Clear,0,2013-04-02 08:55:00
5:15 AM,53.6,53.6,100,30.04,1.8,Calm,Calm,-,N/A,,Unknown,0,2013-04-02 09:15:00
5:35 AM,53.6,51.8,94,30.04,2.0,NNW,3.5,-,N/A,,Clear,340,2013-04-02 09:35:00
5:55 AM,55.4,51.8,88,30.05,10.0,North,3.5,-,N/A,,Clear,360,2013-04-02 09:55:00
6:15 AM,60.8,50.0,68,30.06,10.0,North,4.6,-,N/A,,Clear,10,2013-04-02 10:15:00
6:35 AM,60.8,48.2,63,30.07,10.0,North,3.5,-,N/A,,Clear,360,2013-04-02 10:35:00
6:55 AM,60.8,48.2,63,30.08,10.0,North,3.5,-,N/A,,Clear,10,2013-04-02 10:55:00
7:15 AM,59.0,46.4,63,30.09,10.0,North,4.6,-,N/A,,Clear,360,2013-04-02 11:15:00
7:35 AM,59.0,46.4,63,30.10,10.0,North,3.5,-,N/A,,Clear,360,2013-04-02 11:35:00
7:55 AM,60.8,48.2,63,30.11,10.0,North,3.5,-,N/A,,Clear,10,2013-04-02 11:55:00
8:15 AM,60.8,50.0,68,30.12,10.0,NNE,3.5,-,N/A,,Clear,20,2013-04-02 12:15:00
8:35 AM,64.4,50.0,59,30.12,10.0,Calm,Calm,-,N/A,,Clear,0,2013-04-02 12:35:00
8:55 AM,66.2,46.4,49,30.12,10.0,North,4.6,-,N/A,,Clear,10,2013-04-02 12:55:00
9:15 AM,68.0,46.4,46,30.13,10.0,NNE,4.6,-,N/A,,Clear,20,2013-04-02 13:15:00
9:35 AM,69.8,44.6,40,30.13,10.0,NNE,5.8,-,N/A,,Clear,20,2013-04-02 13:35:00
9:55 AM,69.8,42.8,38,30.13,10.0,NNE,10.4,-,N/A,,Clear,20,2013-04-02 13:55:00
10:15 AM,71.6,42.8,35,30.13,10.0,NNE,9.2,17.3,N/A,,Clear,30,2013-04-02 14:15:00
10:35 AM,71.6,42.8,35,30.14,10.0,ENE,9.2,-,N/A,,Clear,60,2013-04-02 14:35:00
10:55 AM,73.4,44.6,36,30.14,10.0,NE,8.1,17.3,N/A,,Clear,50,2013-04-02 14:55:00
11:15 AM,73.4,44.6,36,30.14,10.0,ENE,5.8,-,N/A,,Clear,70,2013-04-02 15:15:00
11:35 AM,75.2,44.6,34,30.14,10.0,NNE,4.6,-,N/A,,Clear,30,2013-04-02 15:35:00
11:55 AM,75.2,44.6,34,30.14,10.0,NNE,9.2,-,N/A,,Clear,30,2013-04-02 15:55:00
12:15 PM,77.0,44.6,32,30.13,10.0,ENE,9.2,-,N/A,,Clear,60,2013-04-02 16:15:00
12:35 PM,77.0,44.6,32,30.13,10.0,East,12.7,17.3,N/A,,Clear,90,2013-04-02 16:35:00
12:55 PM,77.0,44.6,32,30.13,10.0,ENE,9.2,-,N/A,,Clear,70,2013-04-02 16:55:00
1:15 PM,75.2,44.6,34,30.13,10.0,East,9.2,-,N/A,,Clear,90,2013-04-02 17:15:00
1:35 PM,75.2,44.6,34,30.13,10.0,ENE,6.9,-,N/A,,Clear,70,2013-04-02 17:35:00
1:55 PM,77.0,44.6,32,30.12,10.0,East,6.9,-,N/A,,Clear,90,2013-04-02 17:55:00
2:15 PM,77.0,46.4,34,30.11,10.0,SE,5.8,-,N/A,,Clear,130,2013-04-02 18:15:00
2:35 PM,77.0,46.4,34,30.10,10.0,ESE,8.1,-,N/A,,Clear,110,2013-04-02 18:35:00
2:55 PM,75.2,44.6,34,30.10,10.0,ESE,8.1,-,N/A,,Clear,120,2013-04-02 18:55:00
3:15 PM,75.2,46.4,36,30.09,10.0,SE,10.4,-,N/A,,Clear,130,2013-04-02 19:15:00
3:35 PM,73.4,50.0,44,30.08,10.0,SE,10.4,-,N/A,,Clear,140,2013-04-02 19:35:00
3:55 PM,73.4,46.4,38,30.08,10.0,East,12.7,-,N/A,,Clear,100,2013-04-02 19:55:00
4:15 PM,73.4,50.0,44,30.08,10.0,SE,9.2,-,N/A,,Clear,130,2013-04-02 20:15:00
4:35 PM,73.4,48.2,41,30.08,10.0,SE,8.1,-,N/A,,Clear,140,2013-04-02 20:35:00
4:55 PM,73.4,48.2,41,30.08,10.0,ESE,8.1,-,N/A,,Clear,110,2013-04-02 20:55:00
5:15 PM,73.4,48.2,41,30.08,10.0,ESE,6.9,-,N/A,,Clear,110,2013-04-02 21:15:00
5:35 PM,73.4,50.0,44,30.08,10.0,SE,9.2,-,N/A,,Clear,140,2013-04-02 21:35:00
5:55 PM,71.6,50.0,46,30.08,10.0,ESE,9.2,-,N/A,,Clear,110,2013-04-02 21:55:00
6:15 PM,71.6,46.4,41,30.09,10.0,SE,9.2,-,N/A,,Clear,130,2013-04-02 22:15:00
6:35 PM,71.6,50.0,46,30.08,10.0,SSE,5.8,-,N/A,,Clear,150,2013-04-02 22:35:00
6:55 PM,71.6,50.0,46,30.09,10.0,SSE,5.8,-,N/A,,Clear,160,2013-04-02 22:55:00
7:15 PM,69.8,50.0,49,30.09,10.0,SE,6.9,-,N/A,,Clear,140,2013-04-02 23:15:00
7:35 PM,68.0,50.0,52,30.09,10.0,SE,4.6,-,N/A,,Clear,140,2013-04-02 23:35:00
7:55 PM,68.0,51.8,56,30.09,10.0,SSE,3.5,-,N/A,,Clear,160,2013-04-02 23:55:00
8:15 PM,66.2,53.6,64,30.09,10.0,SE,3.5,-,N/A,,Clear,140,2013-04-03 00:15:00
8:35 PM,64.4,55.4,73,30.09,10.0,SSE,3.5,-,N/A,,Clear,150,2013-04-03 00:35:00
8:55 PM,64.4,59.0,83,30.10,10.0,SE,4.6,-,N/A,,Clear,140,2013-04-03 00:55:00
9:15 PM,64.4,59.0,83,30.10,10.0,SE,3.5,-,N/A,,Clear,140,2013-04-03 01:15:00
9:35 PM,59.0,53.6,82,30.11,10.0,East,3.5,-,N/A,,Clear,80,2013-04-03 01:35:00
9:55 PM,59.0,55.4,88,30.11,10.0,Calm,Calm,-,N/A,,Clear,0,2013-04-03 01:55:00
10:15 PM,57.2,55.4,94,30.11,10.0,Calm,Calm,-,N/A,,Clear,0,2013-04-03 02:15:00
10:35 PM,59.0,57.2,94,30.12,10.0,Calm,Calm,-,N/A,,Clear,0,2013-04-03 02:35:00
10:55 PM,59.0,57.2,94,30.12,5.0,Calm,Calm,-,N/A,,Clear,0,2013-04-03 02:55:00
11:15 PM,57.2,55.4,94,30.12,10.0,Calm,Calm,-,N/A,,Clear,0,2013-04-03 03:15:00
11:35 PM,57.2,55.4,94,30.12,7.0,Calm,Calm,-,N/A,,Clear,0,2013-04-03 03:35:00
11:55 PM,57.2,55.4,94,30.11,7.0,Calm,Calm,-,N/A,,Clear,0,2013-04-03 03:55:00